EST,Max TemperatureF,Mean TemperatureF,Min TemperatureF,Max Dew PointF,MeanDew PointF,Min DewpointF,Max Humidity, Mean Humidity, Min Humidity, Max Sea Level PressureIn, Mean Sea Level PressureIn, Min Sea Level PressureIn, Max VisibilityMiles, Mean VisibilityMiles, Min VisibilityMiles, Max Wind SpeedMPH, Mean Wind SpeedMPH, Max Gust SpeedMPH,PrecipitationIn, CloudCover, Events, WindDirDegrees
2014-1-1,21,16,11,11,7,-1,84,68,51,30.36,30.31,30.19,10,8,2,21,3,44,T,7,Snow,249
2014-1-2,16,6,-5,11,0,-11,87,79,71,30.30,30.08,29.84,9,2,0,10,4,13,0.25,8,Snow,313
2014-1-3,1,-8,-17,-11,-13,-20,86,69,51,30.45,30.07,29.81,10,5,1,17,4,28,0.07,5,Snow,296
2014-1-4,24,4,-17,1,-8,-22,87,59,31,30.47,30.33,30.23,10,10,8,15,3,23,0.00,0,,202
2014-1-5,48,25,2,41,19,-1,91,63,35,30.30,30.10,29.75,10,10,8,30,5,43,0.02,4,,171
2014-1-6,59,37,14,54,34,-2,89,71,52,29.70,29.45,29.28,10,6,0,33,15,47,1.11,8,Fog-Rain-Snow,237
2014-1-7,13,8,3,-2,-10,-15,68,55,42,30.23,29.94,29.68,10,8,2,25,12,35,T,5,Snow,270
2014-1-8,16,9,1,6,-3,-10,87,67,46,30.46,30.40,30.26,10,10,9,22,3,30,0.00,1,,267
2014-1-9,25,17,9,9,7,4,83,65,46,30.63,30.56,30.43,10,10,8,14,3,22,0.00,3,,272
2014-1-10,36,23,9,28,21,6,92,81,70,30.53,30.37,30.19,10,6,1,12,1,13,0.05,7,Snow,225
2014-1-11,62,47,32,54,46,28,93,83,72,30.16,29.67,29.21,10,8,2,29,12,45,0.70,8,Rain,176
2014-1-12,44,39,34,37,28,21,76,66,56,30.00,29.66,29.36,10,10,10,22,9,29,0.01,8,,270
2014-1-13,52,38,24,32,25,21,88,62,35,30.07,29.96,29.79,10,10,10,18,5,21,0.00,2,,176
2014-1-14,50,44,37,43,39,32,96,75,54,29.81,29.71,29.66,10,5,0,13,4,18,0.47,8,Fog-Rain,240
2014-1-15,49,37,25,34,30,22,92,73,54,29.95,29.89,29.83,10,10,6,21,6,30,0.00,3,,228
2014-1-16,37,33,29,32,27,25,92,85,78,29.94,29.89,29.85,10,5,0,9,2,12,0.04,8,Fog-Snow,270
2014-1-17,38,29,20,27,23,18,92,72,52,29.93,29.90,29.88,10,8,1,9,2,14,0.01,5,Snow,176
2014-1-18,39,30,21,28,23,18,92,76,59,29.88,29.74,29.63,10,5,1,12,3,15,0.06,6,Snow,239
2014-1-19,31,26,21,19,17,14,84,71,58,29.77,29.63,29.51,10,6,1,16,6,30,0.03,8,Snow,228
2014-1-20,34,23,12,27,20,-2,85,68,51,29.93,29.60,29.48,10,7,1,17,6,29,0.01,8,Snow,262
2014-1-21,12,6,-1,-2,-8,-12,69,59,49,30.07,30.02,29.95,10,10,10,14,5,22,0.00,4,,312
2014-1-22,5,-1,-7,-11,-13,-18,75,63,51,30.01,29.93,29.83,10,10,10,15,4,23,T,0,,308
2014-1-23,13,9,5,1,-7,-12,83,62,41,30.14,30.07,30.01,10,9,2,12,4,17,T,5,Snow,268
2014-1-24,14,5,-5,-3,-7,-11,78,60,42,30.30,30.17,29.93,10,10,10,15,6,23,T,1,,223
2014-1-25,20,17,13,14,9,-5,77,59,40,29.89,29.50,29.32,10,4,0,23,9,30,0.08,7,Snow,188
2014-1-26,23,14,4,8,-4,-13,73,55,37,29.80,29.71,29.41,10,10,10,23,9,33,0.00,4,,233
2014-1-27,42,26,10,26,10,-6,63,47,31,30.04,29.69,29.44,10,8,1,28,13,52,0.01,5,Snow,264
2014-1-28,12,7,2,-4,-10,-18,72,54,36,30.30,30.22,30.06,10,10,10,15,5,22,0.00,0,,255
2014-1-29,18,5,-8,-3,-8,-13,82,55,28,30.23,30.12,29.99,10,10,9,15,4,24,0.00,2,,268
2014-1-30,27,12,-4,1,-3,-8,79,56,32,30.42,30.28,30.08,10,10,10,14,3,17,0.00,0,,165
2014-1-31,34,25,16,16,7,-5,63,44,25,30.20,30.09,29.99,10,10,10,15,4,20,0.00,4,,234